Location: Bailen
(14.1842°N, 120.7958°E)
Time: 17:18:53
(UTC+00:00)

Palapa B4 Rocket - Pass Details

Date: 12 January 2026
Orbit: 502 x 2663 km, 19.7° (Epoch: 17 February)

Event Time Altitude Azimuth Distance (km) Brightness Sun altitude
Exits shadow 21:30:38 11° 244° (WSW) 1,693 4.9 -13.1°
Maximum altitude 21:34:19 66° 162° (SSE) 664 3.3 -12.2°
Drops below altitude 10° 21:39:35 10° 80° (E) 2,386 7.1 -11.0°
Sets 21:42:42 0° 77° (ENE) 3,634 8.1 -10.3°
